Regional Weather Roundup
Issued by NWS

Home | Current Version | Previous Version | Graphics & Text | Print | Product List | Glossary On
Versions: 1 2 3 4 5 6 7 8 9 10 11 12 13 14 15 16 17 18 19 20 21 22 23 24 25 26 27 28 29 30 31 32 33 34 35 36 37 38 39 40 41 42 43 44 45 46 47 48 49 50
642
ASUS43 KOAX 281510
RWRNE

WEATHER ROUNDUP FOR NEBRASKA
NATIONAL WEATHER SERVICE OMAHA NE
1000 AM CDT TUE MAR 28 2017

NOTES: SATELLITE DATA IS BEING USED TO AUGMENT CLOUD COVER ABOVE
       12000 FEET.
       "FAIR" INDICATES FEW OR NO CLOUDS BELOW 12,000 FEET WITH NO
       SIGNIFICANT WEATHER AND/OR OBSTRUCTIONS TO VISIBILITY.

  * THESE STATIONS DO NOT REPORT WEATHER SUCH AS RAIN...SNOW OR FOG.

NEZ001>004-019>022-054>056-281600-
NEBRASKA PANHANDLE

CITY           SKY/WX    TMP DP  RH WIND       PRES   REMARKS
SCOTTSBLUFF    CLOUDY    46  43  89 SE13      29.92R
ALLIANCE       RAIN      44  42  93 E10       29.95S FOG
CHADRON        RAIN      44  42  93 CALM      30.00R FOG
KIMBALL        LGT RAIN  44  44 100 SE5       29.90S
SIDNEY         LGT RAIN  44  43  96 SE15G22   29.91R FOG
$$

NEZ057>060-069>072-079>082-281600-
SOUTHWEST NEBRASKA

CITY           SKY/WX    TMP DP  RH WIND       PRES   REMARKS
NORTH PLATTE   LGT RAIN  45  43  93 SE13      30.01S FOG
IMPERIAL       LGT RAIN  45  43  93 SE13      29.95R FOG
LEXINGTON      CLOUDY    45  43  95 SE10      30.03S FOG
MCCOOK         LGT RAIN  46  45  96 SE12      29.99R FOG
OGALLALA       LGT RAIN  45  44  95 E10       29.97S
$$

NEZ005>010-023>029-035>040-094-281600-
NORTH CENTRAL NEBRASKA

CITY           SKY/WX    TMP DP  RH WIND       PRES   REMARKS
VALENTINE      CLOUDY    46  42  86 E10       30.05R
AINSWORTH      LGT RAIN  42  42 100 SE6       30.06S
BROKEN BOW     CLOUDY    44  43  96 E9        30.04R FOG
O`NEILL        CLOUDY    44  43  96 SW5       30.09R FOG
ORD            CLOUDY    45  41  86 SE6       30.06S FOG
THEDFORD       CLOUDY    43  43  98 E7        30.04R FOG
$$

NEZ041-046>049-061>064-073>077-083>087-281600-
SOUTH CENTRAL NEBRASKA

CITY           SKY/WX    TMP DP  RH WIND       PRES   REMARKS
GRAND ISLAND   MOSUNNY   41  41 100 E6        30.09R FOG
AURORA         MOSUNNY   42  42 100 E9        30.09R
HASTINGS       CLOUDY    44  40  85 SE5       30.08R
HEBRON         PTSUNNY   44  40  87 E6        30.08F
HOLDREGE       CLOUDY    46  45  97 SE13      30.02F
KEARNEY *      CLOUDY    46  41  81 E10       30.06S
YORK           MOSUNNY   45  45 100 E9        30.10R
$$

NEZ011>018-030>034-042>045-281600-
NORTHEAST NEBRASKA

CITY           SKY/WX    TMP DP  RH WIND       PRES   REMARKS
NORFOLK        CLOUDY    42  40  92 E5        30.09S
ALBION         FOG       39  38  94 CALM      30.09S VSB<1/4
BLAIR          CLOUDY    44  41  88 E6        30.10R
FREMONT        CLOUDY    46  42  88 E5        30.11R
TEKAMAH        MOSUNNY   45  41  86 N8        30.11S
WAYNE          MOSUNNY   43  42  98 CALM      30.12S
$$

NEZ050>053-065>068-078-088>093-281600-
SOUTHEAST NEBRASKA

CITY           SKY/WX    TMP DP  RH WIND       PRES   REMARKS
LINCOLN        CLOUDY    45  42  89 CALM      30.12R FOG
OMAHA EPPLEY   CLOUDY    43  39  86 N6        30.12R
BEATRICE       CLOUDY    48  44  84 E6        30.10R
FALLS CITY     CLOUDY    48  43  82 E7        30.10R
NEBRASKA CITY  CLOUDY    46  40  77 E6        30.11R
PLATTSMOUTH    CLOUDY    46  37  71 E8        30.10S
$$

NEZ044-045-051>053-067-281600-
OMAHA AREA

CITY           SKY/WX    TMP DP  RH WIND       PRES   REMARKS
OMAHA EPPLEY   CLOUDY    43  39  86 N6        30.12R
BLAIR          CLOUDY    44  41  88 E6        30.10R
FREMONT        CLOUDY    46  42  88 E5        30.11R
MILLARD        CLOUDY    48  42  78 E5        30.11S
OFFUTT AFB     CLOUDY    45  39  81 N7        30.11R
PLATTSMOUTH    CLOUDY    46  37  71 E8        30.10S
WAHOO          CLOUDY    46  42  85 E8        30.10R
$$




USA.gov is the U.S. government's official web portal to all federal, state and local government web resources and services.